Location: Unspecified
(35.6961°N, 0.0000°E)
Time: 10:39:42
(UTC+00:00)

Courier 1B Rocket - Pass Details

Date: 20 May 2019
Orbit: 920 x 1202 km, 28.2° (Epoch: 15 June)

Event Time Altitude Azimuth Distance (km) Brightness Sun altitude
Rises 22:11:23 0° 267° (W) 3,996 8.5 -28.9°
Reaches altitude 10° 22:14:43 10° 256° (WSW) 2,992 7.7 -29.2°
Enters shadow 22:18:07 22° 232° (SW) 2,196 6.7 -29.6°
